Regional Weather Roundup
Issued by NWS

Home | Current Version | Previous Version | Text Only | Print | Product List | Glossary Off
Versions: 1 2 3 4 5 6 7 8 9 10 11 12 13 14 15 16 17 18 19 20 21 22 23 24 25 26 27 28 29 30 31 32 33 34 35 36 37 38 39 40 41 42 43 44 45 46 47 48 49 50

000
ASUS43 KMKX 011759
RWRWI

WISCONSIN REGIONAL WEATHER ROUNDUP
NATIONAL WEATHER SERVICE MILWAUKEE/SULLIVAN WI
1200 PM CST SUN MAR 01 2015

NOTE: "FAIR" INDICATES FEW OR NO CLOUDS BELOW 12,000 FEET WITH NO
SIGNIFICANT WEATHER AND/OR OBSTRUCTIONS TO VISIBILITY.

WIZ001-002-006>008-014>016-023>028-011900-
NORTHWEST WISCONSIN

CITY           SKY/WX    TMP DP  RH WIND       PRES   REMARKS
SUPERIOR ARPT  SUNNY     22   6  51 W12       30.17S WCI  10
ASHLAND        PTSUNNY   21   8  57 SW15      30.15F WCI   8
6HR MIN TEMP:  12; 6HR MAX TEMP:  22; 6HR PCP: TRACE;

HAYWARD        CLOUDY    20   9  62 W13G18    30.15S WCI   7
6HR MIN TEMP:  13; 6HR MAX TEMP:  20; 6HR PCP: TRACE;

SIREN          SUNNY     22   6  50 W13G18    30.20S WCI  10
CUMBERLAND     MOSUNNY   19  10  68 W14       30.18F WCI   6
RICE LAKE      CLOUDY    20  11  68 SW13G18   30.21S WCI   7
CHETEK         LGT SNOW  20  13  73 SW10      30.21S WCI   9
LADYSMITH      LGT SNOW  19  13  78 SW10      30.19S WCI   7
EAU CLAIRE     LGT SNOW  19  12  74 SW14      30.24S WCI   6
MENOMONIE      CLOUDY    23  12  62 SW13G21   30.24F WCI  11
NEW RICHMOND   MOSUNNY   21   6  52 W13       30.24R WCI   9
OSCEOLA        MOSUNNY   22   8  53 W12       30.27S WCI  11
$$

WIZ003>005-009-010-017-018-011900-
NORTH CENTRAL WISCONSIN

CITY           SKY/WX    TMP DP  RH WIND       PRES   REMARKS
MANITOWISH WTR LGT SNOW  16  10  76 SW8       30.10F WCI   5
ARBOR VITAE    LGT SNOW  17  10  75 SW12      30.11F WCI   4
WOODRUFF       LGT SNOW  17  10  75 SW12      30.11F WCI   4
RHINELANDER    LGT SNOW  16   9  74 W13       30.13S WCI   2
6HR MIN TEMP:   7; 6HR MAX TEMP:  16; 6HR PCP: TRACE;

EAGLE RIVER    LGT SNOW  17   9  71 SW15      30.10F WCI   2
LAND O LAKES   LGT SNOW  19  10  70 SW10      30.10F WCI   7
PHILLIPS       LGT SNOW  16  10  78 SW10      30.13F WCI   3
TOMAHAWK       LGT SNOW  17   9  73 SW6       30.16S WCI   8
MEDFORD        LGT SNOW  15  10  80 SW9       30.17S WCI   4
MERRILL        LGT SNOW  17  11  77 SW13      30.18F WCI   4
$$

WIZ029-030-035-036-043>047-011900-
CENTRAL WISCONSIN

CITY           SKY/WX    TMP DP  RH WIND       PRES   REMARKS
WAUSAU         LGT SNOW  16  10  77 SW10      30.18F WCI   4
6HR MIN TEMP:   8; 6HR MAX TEMP:  16; 6HR PCP: TRACE;

MOSINEE        FLURRIES  16  12  86 SW12      30.21F WCI   3
MARSHFIELD     LGT SNOW  17  11  77 W13G20    30.21S WCI   4
6HR MIN TEMP:   9; 6HR MAX TEMP:  17; 6HR PCP: TRACE;

STEVENS POINT  CLOUDY    18  10  72 W8        30.22F WCI   7
WAUPACA        PTSUNNY   28  15  57 SW10      30.24F WCI  18
WAUTOMA        NOT AVBL
WISC RAPIDS    PTSUNNY   21  11  65 W14       30.24F WCI   8
6HR MIN TEMP:   7; 6HR MAX TEMP:  21;

CAMP DOUGLAS   NOT AVBL
$$

WIZ011>013-019>022-031-037>040-048>050-011900-
NORTHEAST WISCONSIN

CITY           SKY/WX    TMP DP  RH WIND       PRES   REMARKS
ANTIGO         FLURRIES  16  10  79 SW14      30.16F WCI   1
SHAWANO        PTSUNNY   23  12  63 SW8       30.23F WCI  14
OCONTO         MOSUNNY   25  15  64 SW17      30.23F WCI  12
STURGEON BAY   FAIR      25  14  63 W14G20    30.23F WCI  13
6HR MIN TEMP:  10; 6HR MAX TEMP:  25;

GREEN BAY      MOSUNNY   25  15  66 W14       30.24F WCI  13
6HR MIN TEMP:   8; 6HR MAX TEMP:  25;

MANITOWOC      NOT AVBL
APPLETON       PTSUNNY   25  14  63 SW13      30.24F WCI  13
CLINTONVILLE   PTSUNNY   21  12  68 SW10      30.23F WCI  10
OSHKOSH        MOSUNNY   25  14  63 SW10G18   30.25F WCI  15
6HR MIN TEMP:   7; 6HR MAX TEMP:  25;

$$

WIZ032>034-041-042-053>061-011900-
SOUTHWEST WISCONSIN

CITY           SKY/WX    TMP DP  RH WIND       PRES   REMARKS
LA CROSSE      CLOUDY    24  15  68 W8        30.29F WCI  15
6HR MIN TEMP:  10; 6HR MAX TEMP:  24; 6HR PCP: TRACE;

SPARTA         CLOUDY    20  14  79 W7        30.29S WCI  11
VIROQUA        CLOUDY    20  16  82 W12       30.25F WCI   8
BOSCOBEL       PTSUNNY   25  15  66 SW10      30.31F WCI  15
6HR MIN TEMP:   4; 6HR MAX TEMP:  26;

PRAIRIE DU CHI CLOUDY    24  15  67 SW10      30.32F WCI  14
PLATTEVILLE    PTSUNNY   21  19  92 S9        30.31F WCI  10
$$

WIZ056-057-062-063-064-067-068-011900-
SOUTH CENTRAL WISCONSIN

CITY           SKY/WX    TMP DP  RH WIND       PRES   REMARKS
REEDSBURG      MOSUNNY   23  14  70 SW12      30.28S WCI  11
BARABOO/DELLS  MOSUNNY   21  14  72 SW12      30.27S WCI  10
LONE ROCK      PTSUNNY   24  14  65 SW10      30.31F WCI  14
MINERAL POINT  CLOUDY    25  18  74 SW9       30.29F WCI  15
MADISON        CLOUDY    22  13  68 VRB7G16   30.30S WCI  13
6HR MIN TEMP:  14; 6HR MAX TEMP:  23; 6HR PCP: TRACE;

MIDDLETON      MOSUNNY   26  13  59 SW12      30.30F WCI  15
WATERTOWN      MOSUNNY   21  14  73 SW8       30.30F WCI  12
MONROE         CLOUDY    23  18  80 S8        30.31S WCI  14
JANESVILLE     PTSUNNY   25  14  63 SW8       30.33F WCI  16
$$

WIZ051-052-058>065-066-070>072-011900-
SOUTHEAST WISCONSIN

CITY           SKY/WX    TMP DP  RH WIND       PRES   REMARKS
MILWAUKEE      PTSUNNY   23  13  65 VRB6      30.31F HAZE    WCI  16
6HR MIN TEMP:  14; 6HR MAX TEMP:  23;

WAUKESHA       PTSUNNY   21  12  68 SW5       30.31F WCI  15
MILWAUKEE/TIMM MOSUNNY   21  12  68 W7        30.31F WCI  13
RACINE         PTSUNNY   22  14  71 SW12      30.34F WCI  10
6HR MIN TEMP:  14; 6HR MAX TEMP:  22;

BURLINGTON     MOSUNNY   23  13  64 W9        30.33S WCI  13
KENOSHA        CLOUDY    23  16  74 SW10      30.32F WCI  12
6HR MIN TEMP:  13; 6HR MAX TEMP:  23;

FOND DU LAC    MOSUNNY   25  13  60 SW12      30.26F WCI  14
6HR MIN TEMP:   9; 6HR MAX TEMP:  25;

SHEBOYGAN      FAIR      24  14  65 SW12      30.27F WCI  13
6HR MIN TEMP:  10; 6HR MAX TEMP:  24;

WEST BEND      MOSUNNY   25  12  58 SW7       30.28F WCI  17
JUNEAU         MOSUNNY   22  14  70 SW13      30.29F WCI  10
$$

LSZ147-162-011900-
LAKE SUPERIOR

STATION/POSITION TIME  TEMP    WIND        PRES    WAVE
                       AIR SEA DIR/SP/G            HT/PER
                 (UTC) (F)     (DEG/KT/KT) (MB)    (FT/S)
DEVILS ISLAND    1700   19     250/ 21/ 26 1021.5F
PORT WING        1740   20     250/ 10/ 18 1021.3S
SAXON HARBOR     1700   20     210/  9/ 13 1021.0F
$$

LMZ867-665-643>646-011900-
LAKE MICHIGAN

STATION/POSITION TIME  TEMP    WIND        PRES    WAVE
                       AIR SEA DIR/SP/G            HT/PER
                 (UTC) (F)     (DEG/KT/KT) (MB)    (FT/S)
NORTHPORT PIER   1707   24     190/  6/ 16 1023.4F
SISTER BAY       1643   26     190/ 11/ 14   N/A
KEWAUNEE LAKESHO 1700   22     230/  8/ 11 1024.2F
SHEBOYGAN LAKESH 1700   21     230/  6/  8 1027.4F
PORT WASHINGTON  1700   23     250/  6/ 10 1027.4S
MILWAUKEE LAKESH 1700   22     240/  5/  7   N/A
KENOSHA   LAKESH 1700   21     250/  4/  7 1027.8S
$$

TC  - TEMPERATURE IN CELSIUS
VSB - VISIBILITY IN STATUTE MILES
WCI - WIND CHILL INDEX
HX  - HEAT INDEX



USA.gov is the U.S. government's official web portal to all federal, state and local government web resources and services.